Location: Monroe
(41.9160°N, 83.3980°W)
Time: 09:40:27
(UTC-04:00)

ISS - Visible Passes

Search period start: 27 May 2017 00:00
Search period end: 06 June 2017 00:00
Orbit: 402 x 408 km, 51.6° (Epoch: 27 May)

Date Brightness Start Highest point End Pass type
(mag) Time Alt. Az. Time Alt. Az. Time Alt. Az.
27 May -0.7 01:10:29 10° NW 01:12:35 16° N 01:14:40 10° NE visible
27 May -2.1 02:46:45 10° NW 02:49:47 34° NNE 02:51:16 22° ENE visible
27 May -2.4 04:27:43 22° S 04:27:43 22° S 04:29:14 10° SSE visible
27 May -1.4 22:40:06 10° W 22:42:54 25° NNW 22:45:43 10° NE visible
28 May -0.6 00:18:14 10° NW 00:20:15 15° N 00:22:15 10° NE visible
28 May -1.5 01:54:50 10° NW 01:57:36 24° NNE 01:57:37 24° NNE visible
28 May -2.0 21:47:37 10° W 21:50:42 36° NNW 21:53:48 10° NE visible
28 May -0.7 23:25:47 10° NW 23:27:54 16° N 23:30:02 10° NNE visible
29 May -1.1 01:02:52 10° NW 01:05:19 19° NNE 01:06:25 16° NE visible
29 May -0.8 02:39:00 10° NW 02:39:01 10° NW 02:39:01 10° NW visible
29 May -0.8 22:33:12 10° WNW 22:35:35 18° NNW 22:37:57 10° NNE visible
30 May -0.8 00:10:50 10° NNW 00:13:00 16° N 00:15:10 10° NE visible
30 May -1.3 01:47:01 10° NW 01:48:13 19° NW 01:48:13 19° NW visible
30 May -1.2 21:40:34 10° WNW 21:43:16 23° NNW 21:45:57 10° NE visible
30 May -0.8 23:18:37 10° NW 23:20:38 15° N 23:22:40 10° NE visible
31 May -1.6 00:55:04 10° NW 00:57:34 26° N 00:57:34 26° N visible
31 May -0.8 22:26:11 10° NW 22:28:15 15° N 22:30:19 10° NE visible
01 Jun -1.4 00:03:05 10° NW 00:05:39 20° NNE 00:06:58 16° NE visible
01 Jun -0.9 01:39:14 10° NW 01:39:36 13° NW 01:39:36 13° NW visible
01 Jun -0.9 21:33:36 10° NW 21:35:52 17° N 21:38:08 10° NNE visible
01 Jun -1.0 23:11:02 10° NNW 23:13:18 17° N 23:15:35 10° NE visible
02 Jun -1.8 00:47:11 10° NW 00:49:04 29° NNW 00:49:04 29° NNW visible
02 Jun -1.0 22:18:51 10° NW 22:20:55 15° N 22:22:58 10° NE visible
02 Jun -2.3 23:55:11 10° NW 23:58:10 31° NNE 23:58:35 30° NE visible
03 Jun -1.6 23:03:11 10° NW 23:05:52 22° NNE 23:08:07 12° ENE visible
04 Jun -1.7 00:39:22 10° WNW 00:40:45 23° WNW 00:40:45 23° WNW visible
04 Jun -1.3 22:11:08 10° NNW 22:13:30 18° NNE 22:15:52 10° ENE visible
04 Jun -3.3 23:47:14 10° NW 23:50:19 57° NNE 23:50:19 57° NNE visible
05 Jun -2.5 22:55:11 10° NW 22:58:16 36° NNE 22:59:55 21° E visible
